Observations for Trim Market St
| Time | AQI | Temp °C | Hum % | Pres Pa | CO μg/m³ | H₂S μg/m³ | NO μg/m³ | NO₂ μg/m³ | O₃ μg/m³ | SO₂ μg/m³ | PM1 μg/m³ | PM2.5 μg/m³ | PM10 μg/m³ |
|---|---|---|---|---|---|---|---|---|---|---|---|---|---|
| Friday 10 July 2026 | |||||||||||||
| 09:22 | 1 | 32.3 | 40 | 65,639 | 0.92 | 0 | 0 | 0 | 0 | 0 | 1.43 | 3.93 | 5.11 |
| 09:21 | 1 | 32.2 | 40 | 65,572 | 0 | 0 | 0 | 0 | 2.09 | 0 | 1.43 | 3.93 | 4.32 |
| 09:20 | 1 | 32.2 | 40 | 65,513 | 0 | 0 | 0 | 0 | 0.44 | 0 | 2.14 | 4.98 | 5.12 |
| 09:17 | 1 | 32.1 | 41 | 65,460 | 0 | 0 | 0 | 0 | 0 | 0 | 1.43 | 4.43 | 4.87 |
| 09:16 | 1 | 32 | 41 | 65,358 | 0 | 0 | 0 | 0 | 0 | 0 | 0.71 | 3.37 | 3.7 |
| 09:08 | 1 | 31.2 | 43 | 64,662 | 0.05 | 0 | 0 | 0 | 0 | 0 | 0 | 2.76 | 3.04 |
| 09:06 | 1 | 31.1 | 43 | 64,347 | 0.06 | 0 | 0 | 0 | 0 | 0 | 1.43 | 4.32 | 4.38 |
| 09:02 | 1 | 30.7 | 44 | 63,717 | 0 | 0 | 0 | 0 | 0 | 0 | 2.14 | 4.79 | 5.19 |
| 09:01 | 1 | 30.5 | 44 | 63,611 | 0 | 0 | 0 | 0 | 0 | 0 | 2.14 | 4.26 | 4.41 |
| 09:00 | 1 | 30.4 | 45 | 63,372 | 0 | 0 | 0 | 0 | 3.59 | 0 | 1.43 | 3.73 | 4.1 |
| 08:59 | 1 | 30.3 | 45 | 63,195 | 0 | 0 | 0 | 0 | 0.34 | 0 | 1.43 | 3.72 | 4.1 |
| 08:58 | 1 | 30.2 | 45 | 63,035 | 0 | 0 | 0 | 0 | 0 | 0 | 0.71 | 4.23 | 4.43 |
| 08:57 | 1 | 30 | 45 | 62,752 | 0 | 0 | 0 | 0 | 0 | 0 | 2.14 | 4.21 | 4.43 |
| 08:56 | 1 | 29.8 | 46 | 62,413 | 0 | 0 | 0 | 0 | 0 | 0 | 1.43 | 3.68 | 4.05 |
| 08:55 | 1 | 29.8 | 46 | 62,100 | 0 | 0 | 0 | 0 | 8.62 | 0 | 1.43 | 4.18 | 4.45 |
| 08:52 | 1 | 29.3 | 47 | 60,809 | 0.1 | 0 | 0 | 0 | 0 | 0 | 1.43 | 4.15 | 4.47 |
| 08:51 | 1 | 29.3 | 47 | 60,224 | 0 | 0 | 0 | 0 | 0 | 0 | 1.43 | 4.14 | 4.47 |
| 08:47 | 1 | 28.9 | 48 | 59,154 | 0 | 0 | 0 | 0 | 2.72 | 0 | 1.43 | 3.6 | 3.72 |
| 08:46 | 1 | 28.8 | 48 | 58,840 | 0 | 0 | 0 | 0 | 0 | 0 | 0.71 | 3.6 | 3.72 |
| 08:38 | 1 | 28.2 | 49 | 56,107 | 0.05 | 0 | 0 | 0 | 0 | 0 | 1.43 | 3.52 | 3.77 |